Notices

What's New in latest Release from April 7th, 2021:

- Updated Glossary, including Speed of Maximum Gust, and Total Hourly Precipitation

- Updated national and regional climate services offices contacts and prices information

- Addition of station inventory lists for 1981-2010, 1971-2000, and 1961-1990 Normals.

If you haven't already, please take our survey and provide feedback about our website: https://eccc.sondage-survey.ca/f/LanguageSelection.aspx?s=442ca660-fcf1-47c0-95a9-59707d6fd709

Hourly Data Report for November 01, 2019

MIRAMICHI RCS
NEW BRUNSWICK
Current Station Operator: ECCC - MSC

47°00'34.000" N
65°27'54.000" W
33.00 m
8100989
71744
ACQ

Download Data

Hourly Data (November 2019)
Hourly Data Report for November 1, 2019
TIME
LST
Temp Definition
°C
Dew Point Definition
°C
Rel Hum Definition
%
Precip. Amount Definition
mm

Wind Dir Definition
10's deg

Wind Spd Definition
km/h
Visibility Definition
km
Stn Press Definition
kPa
Hmdx Definition


Wind Chill Definition


Weather Definition


00:00 17.5 17.5 100 0.3 21 36   99.54     LegendNANA
01:00 17.8 17.8 100 0.0 21 38   99.49     LegendNANA
02:00 18.1 LegendMM LegendMM 0.0 21 37   99.43     LegendNANA
03:00 18.2 18.2 100 0.6 21 39   99.31     LegendNANA
04:00 18.2 17.7 97 0.0 20 39   99.22     LegendNANA
05:00 18.1 17.9 99 0.0 20 38   99.13     LegendNANA
06:00 18.0 16.8 92 0.0 21 38   99.04     LegendNANA
07:00 18.5 17.4 93 0.0 20 38   98.90     LegendNANA
08:00 18.8 18.1 96 0.0 20 40   98.79     LegendNANA
09:00 18.7 18.5 98 0.0 20 42   98.70     LegendNANA
10:00 19.0 18.8 98 0.2 20 45   98.49     LegendNANA
11:00 18.6 18.6 100 0.3 20 42   98.44     LegendNANA
12:00 14.4 14.4 100 2.6 26 22   98.56     LegendNANA
13:00 9.4 8.9 96 6.4 28 39   98.83     LegendNANA
14:00 10.0 8.7 92 0.0 25 25   99.06     LegendNANA
15:00 10.6 6.8 78 0.0 24 41   99.14     LegendNANA
16:00 8.6 6.5 87 0.0 24 37   99.39     LegendNANA
17:00 7.7 4.4 80 0.7 25 26   99.62     LegendNANA
18:00 7.1 -0.2 60 0.0 25 34   99.85     LegendNANA
19:00 6.6 -2.5 52 0.0 24 40   99.98     LegendNANA
20:00 6.3 -2.0 55 0.0 25 33   100.12     LegendNANA
21:00 5.9 -3.5 51 0.0 26 37   100.25     LegendNANA
22:00 5.8 -3.5 51 0.0 26 34   100.38     LegendNANA
23:00 5.6 -4.1 50 0.0 27 38   100.50     LegendNANA

Notes on Data Quality.

Legend

  • E = Estimated
  • M = Missing
  • NA = Not Available*
  • [empty] = Indicates an unobserved value
Date modified: